Time,TemperatureF,DewpointF,PressureIn,WindDirection,WindDirectionDegrees,WindSpeedMPH,WindSpeedGustMPH,Humidity,HourlyPrecipIn,Conditions,Clouds,dailyrainin,SolarRadiationWatts/m^2,SoftwareType,DateUTC
2013-02-25 16:50:00,41.0,25.6,30.13,East,79,1.0,-999.0,54,0.00,,,0.00,132,Wunderground v.1.15,2013-02-25 21:50:00,
2013-02-25 16:55:00,40.9,25.5,30.12,East,85,1.0,-999.0,54,0.00,,,0.00,206,Wunderground v.1.15,2013-02-25 21:55:00,
2013-02-25 17:00:00,40.9,25.5,30.12,ENE,68,1.0,-999.0,54,0.00,,,0.00,134,Wunderground v.1.15,2013-02-25 22:00:00,
2013-02-25 17:05:00,40.8,25.9,30.12,East,98,1.0,-999.0,55,0.00,,,0.00,107,Wunderground v.1.15,2013-02-25 22:05:00,
2013-02-25 17:11:00,40.7,25.8,30.12,ENE,64,1.0,-999.0,55,0.00,,,0.00,111,Wunderground v.1.15,2013-02-25 22:11:00,
2013-02-25 17:17:00,40.6,25.2,30.11,East,95,1.0,-999.0,54,0.00,,,0.00,102,Wunderground v.1.15,2013-02-25 22:17:00,
2013-02-25 17:22:00,40.5,25.6,30.11,ENE,71,2.0,-999.0,55,0.00,,,0.00,76,Wunderground v.1.15,2013-02-25 22:22:00,
2013-02-25 17:27:00,40.4,25.5,30.12,East,92,1.0,-999.0,55,0.00,,,0.00,74,Wunderground v.1.15,2013-02-25 22:27:00,
2013-02-25 17:33:00,40.4,25.5,30.12,East,92,1.0,-999.0,55,0.00,,,0.00,58,Wunderground v.1.15,2013-02-25 22:33:00,
2013-02-25 17:38:00,40.2,25.3,30.12,ENE,57,1.0,-999.0,55,0.00,,,0.00,53,Wunderground v.1.15,2013-02-25 22:38:00,
2013-02-25 17:43:00,40.1,25.2,30.13,NE,52,1.0,-999.0,55,0.00,,,0.00,47,Wunderground v.1.15,2013-02-25 22:43:00,
2013-02-25 17:49:00,40.1,25.2,30.13,ENE,71,0.0,-999.0,55,0.00,,,0.00,35,Wunderground v.1.15,2013-02-25 22:49:00,
2013-02-25 17:55:00,40.1,25.6,30.13,ENE,59,0.0,-999.0,56,0.00,,,0.00,26,Wunderground v.1.15,2013-02-25 22:55:00,
2013-02-25 18:00:00,40.0,25.6,30.13,ESE,103,0.0,-999.0,56,0.00,,,0.00,18,Wunderground v.1.15,2013-02-25 23:00:00,
2013-02-25 18:06:00,40.0,25.6,30.13,ESE,103,0.0,-999.0,56,0.00,,,0.00,11,Wunderground v.1.15,2013-02-25 23:06:00,
2013-02-25 18:11:00,39.8,25.4,30.13,ESE,103,0.0,-999.0,56,0.00,,,0.00,9,Wunderground v.1.15,2013-02-25 23:11:00,
2013-02-25 18:16:00,39.6,25.6,30.13,ESE,103,0.0,-999.0,57,0.00,,,0.00,5,Wunderground v.1.15,2013-02-25 23:16:00,
2013-02-25 18:21:00,39.4,25.4,30.14,ESE,103,0.0,-999.0,57,0.00,,,0.00,0,Wunderground v.1.15,2013-02-25 23:21:00,
2013-02-25 18:27:00,39.2,25.2,30.14,ESE,103,0.0,-999.0,57,0.00,,,0.00,0,Wunderground v.1.15,2013-02-25 23:27:00,
2013-02-25 18:32:00,39.0,25.0,30.14,ESE,103,0.0,-999.0,57,0.00,,,0.00,0,Wunderground v.1.15,2013-02-25 23:32:00,
2013-02-25 18:38:00,38.7,24.8,30.13,ESE,103,0.0,-999.0,57,0.00,,,0.00,0,Wunderground v.1.15,2013-02-25 23:38:00,
2013-02-25 18:44:00,38.4,24.9,30.14,ESE,103,0.0,-999.0,58,0.00,,,0.00,0,Wunderground v.1.15,2013-02-25 23:44:00,
2013-02-25 18:49:00,38.2,24.7,30.14,ESE,103,0.0,-999.0,58,0.00,,,0.00,0,Wunderground v.1.15,2013-02-25 23:49:00,
2013-02-25 18:55:00,37.8,24.7,30.13,ESE,103,0.0,-999.0,59,0.00,,,0.00,0,Wunderground v.1.15,2013-02-25 23:55:00,
2013-02-25 19:01:00,37.5,24.9,30.14,ESE,103,0.0,-999.0,60,0.00,,,0.00,0,Wunderground v.1.15,2013-02-26 00:01:00,
2013-02-25 19:06:00,37.3,24.7,30.15,ESE,103,0.0,-999.0,60,0.00,,,0.00,0,Wunderground v.1.15,2013-02-26 00:06:00,
2013-02-25 19:12:00,37.1,24.5,30.15,ESE,103,0.0,-999.0,60,0.00,,,0.00,0,Wunderground v.1.15,2013-02-26 00:12:00,
2013-02-25 19:17:00,37.0,24.4,30.15,ESE,103,0.0,-999.0,60,0.00,,,0.00,0,Wunderground v.1.15,2013-02-26 00:17:00,
2013-02-25 19:22:00,36.8,24.2,30.15,ESE,103,0.0,-999.0,60,0.00,,,0.00,0,Wunderground v.1.15,2013-02-26 00:22:00,
2013-02-25 19:27:00,36.6,24.4,30.15,ESE,103,0.0,-999.0,61,0.00,,,0.00,0,Wunderground v.1.15,2013-02-26 00:27:00,
2013-02-25 19:33:00,36.4,24.2,30.15,ESE,103,0.0,-999.0,61,0.00,,,0.00,0,Wunderground v.1.15,2013-02-26 00:33:00,
2013-02-25 19:38:00,36.2,24.0,30.15,ESE,103,0.0,-999.0,61,0.00,,,0.00,0,Wunderground v.1.15,2013-02-26 00:38:00,
2013-02-25 19:43:00,36.0,24.2,30.15,ESE,103,0.0,-999.0,62,0.00,,,0.00,0,Wunderground v.1.15,2013-02-26 00:43:00,
2013-02-25 19:48:00,35.8,24.0,30.15,ESE,103,0.0,-999.0,62,0.00,,,0.00,0,Wunderground v.1.15,2013-02-26 00:48:00,
2013-02-25 19:54:00,35.6,23.9,30.14,ESE,103,0.0,-999.0,62,0.00,,,0.00,0,Wunderground v.1.15,2013-02-26 00:54:00,
2013-02-25 19:59:00,35.5,24.1,30.14,ESE,103,0.0,-999.0,63,0.00,,,0.00,0,Wunderground v.1.15,2013-02-26 00:59:00,
2013-02-25 20:04:00,35.3,24.0,30.14,ESE,103,0.0,-999.0,63,0.00,,,0.00,0,Wunderground v.1.15,2013-02-26 01:04:00,
2013-02-25 20:10:00,35.2,23.9,30.15,ESE,103,0.0,-999.0,63,0.00,,,0.00,0,Wunderground v.1.15,2013-02-26 01:10:00,
2013-02-25 20:15:00,35.1,24.1,30.15,ESE,103,0.0,-999.0,64,0.00,,,0.00,0,Wunderground v.1.15,2013-02-26 01:15:00,
2013-02-25 20:20:00,35.0,24.0,30.15,ESE,103,0.0,-999.0,64,0.00,,,0.00,0,Wunderground v.1.15,2013-02-26 01:20:00,
2013-02-25 20:26:00,35.0,24.0,30.15,East,94,0.0,-999.0,64,0.00,,,0.00,0,Wunderground v.1.15,2013-02-26 01:26:00,
2013-02-25 20:31:00,35.0,24.0,30.15,East,94,0.0,-999.0,64,0.00,,,0.00,0,Wunderground v.1.15,2013-02-26 01:31:00,
2013-02-25 20:36:00,34.9,23.9,30.15,East,94,0.0,-999.0,64,0.00,,,0.00,0,Wunderground v.1.15,2013-02-26 01:36:00,
2013-02-25 20:42:00,34.9,23.9,30.15,East,94,0.0,-999.0,64,0.00,,,0.00,0,Wunderground v.1.15,2013-02-26 01:42:00,
2013-02-25 20:47:00,34.8,23.9,30.15,East,95,0.0,-999.0,64,0.00,,,0.00,0,Wunderground v.1.15,2013-02-26 01:47:00,
2013-02-25 20:53:00,34.8,23.9,30.15,East,95,0.0,-999.0,64,0.00,,,0.00,0,Wunderground v.1.15,2013-02-26 01:53:00,
2013-02-25 20:58:00,34.7,23.8,30.15,East,95,0.0,-999.0,64,0.00,,,0.00,0,Wunderground v.1.15,2013-02-26 01:58:00,
2013-02-25 21:03:00,34.6,23.7,30.15,East,95,0.0,-999.0,64,0.00,,,0.00,0,Wunderground v.1.15,2013-02-26 02:03:00,
2013-02-25 21:08:00,34.5,23.9,30.16,East,95,0.0,-999.0,65,0.00,,,0.00,0,Wunderground v.1.15,2013-02-26 02:08:00,
2013-02-25 21:14:00,34.4,23.8,30.16,East,95,0.0,-999.0,65,0.00,,,0.00,0,Wunderground v.1.15,2013-02-26 02:14:00,
2013-02-25 21:19:00,34.4,23.5,30.16,East,95,0.0,-999.0,64,0.00,,,0.00,0,Wunderground v.1.15,2013-02-26 02:19:00,
2013-02-25 21:25:00,34.4,23.8,30.16,East,95,0.0,-999.0,65,0.00,,,0.00,0,Wunderground v.1.15,2013-02-26 02:25:00,
2013-02-25 21:30:00,34.4,23.8,30.15,East,95,0.0,-999.0,65,0.00,,,0.00,0,Wunderground v.1.15,2013-02-26 02:30:00,
2013-02-25 21:35:00,34.3,23.7,30.15,East,95,0.0,-999.0,65,0.00,,,0.00,0,Wunderground v.1.15,2013-02-26 02:35:00,
2013-02-25 21:40:00,34.3,23.7,30.15,East,95,0.0,-999.0,65,0.00,,,0.00,0,Wunderground v.1.15,2013-02-26 02:40:00,
2013-02-25 21:45:00,34.2,24.0,30.15,East,95,0.0,-999.0,66,0.00,,,0.00,0,Wunderground v.1.15,2013-02-26 02:45:00,
2013-02-25 21:51:00,34.2,24.0,30.15,East,95,0.0,-999.0,66,0.00,,,0.00,0,Wunderground v.1.15,2013-02-26 02:51:00,
2013-02-25 21:56:00,34.1,23.9,30.15,East,95,0.0,-999.0,66,0.00,,,0.00,0,Wunderground v.1.15,2013-02-26 02:56:00,
2013-02-25 22:01:00,34.2,23.7,30.15,East,95,0.0,-999.0,65,0.00,,,0.00,0,Wunderground v.1.15,2013-02-26 03:01:00,
2013-02-25 22:07:00,34.3,23.7,30.15,East,95,0.0,-999.0,65,0.00,,,0.00,0,Wunderground v.1.15,2013-02-26 03:07:00,
2013-02-25 22:12:00,34.3,24.1,30.15,East,95,0.0,-999.0,66,0.00,,,0.00,0,Wunderground v.1.15,2013-02-26 03:12:00,
2013-02-25 22:17:00,34.3,24.1,30.16,East,95,0.0,-999.0,66,0.00,,,0.00,0,Wunderground v.1.15,2013-02-26 03:17:00,
2013-02-25 22:22:00,34.2,24.0,30.15,East,95,0.0,-999.0,66,0.00,,,0.00,0,Wunderground v.1.15,2013-02-26 03:22:00,
2013-02-25 22:28:00,34.2,24.0,30.15,East,95,0.0,-999.0,66,0.00,,,0.00,0,Wunderground v.1.15,2013-02-26 03:28:00,
2013-02-25 22:33:00,34.1,23.9,30.16,East,95,0.0,-999.0,66,0.00,,,0.00,0,Wunderground v.1.15,2013-02-26 03:33:00,
2013-02-25 22:39:00,34.1,23.9,30.16,East,95,0.0,-999.0,66,0.00,,,0.00,0,Wunderground v.1.15,2013-02-26 03:39:00,
2013-02-25 22:45:00,34.0,23.8,30.15,East,95,0.0,-999.0,66,0.00,,,0.00,0,Wunderground v.1.15,2013-02-26 03:45:00,
2013-02-25 22:50:00,33.9,24.1,30.15,East,95,0.0,-999.0,67,0.00,,,0.00,0,Wunderground v.1.15,2013-02-26 03:50:00,
2013-02-25 22:55:00,33.8,24.0,30.15,East,95,0.0,-999.0,67,0.00,,,0.00,0,Wunderground v.1.15,2013-02-26 03:55:00,
2013-02-25 23:01:00,33.7,23.9,30.14,East,95,0.0,-999.0,67,0.00,,,0.00,0,Wunderground v.1.15,2013-02-26 04:01:00,
2013-02-25 23:06:00,33.7,23.9,30.14,East,95,0.0,-999.0,67,0.00,,,0.00,0,Wunderground v.1.15,2013-02-26 04:06:00,
2013-02-25 23:11:00,33.6,23.8,30.14,East,95,0.0,-999.0,67,0.00,,,0.00,0,Wunderground v.1.15,2013-02-26 04:11:00,
2013-02-25 23:16:00,33.5,23.7,30.14,East,95,0.0,-999.0,67,0.00,,,0.00,0,Wunderground v.1.15,2013-02-26 04:16:00,
2013-02-25 23:22:00,33.4,24.0,30.14,East,95,0.0,-999.0,68,0.00,,,0.00,0,Wunderground v.1.15,2013-02-26 04:22:00,
2013-02-25 23:27:00,33.3,23.9,30.14,East,95,0.0,-999.0,68,0.00,,,0.00,0,Wunderground v.1.15,2013-02-26 04:27:00,
2013-02-25 23:32:00,33.2,23.8,30.14,East,95,0.0,-999.0,68,0.00,,,0.00,0,Wunderground v.1.15,2013-02-26 04:32:00,
2013-02-25 23:38:00,33.1,23.7,30.14,East,95,0.0,-999.0,68,0.00,,,0.00,0,Wunderground v.1.15,2013-02-26 04:38:00,
2013-02-25 23:43:00,33.0,23.6,30.14,East,95,0.0,-999.0,68,0.00,,,0.00,0,Wunderground v.1.15,2013-02-26 04:43:00,
2013-02-25 23:49:00,32.9,23.8,30.14,East,95,0.0,-999.0,69,0.00,,,0.00,0,Wunderground v.1.15,2013-02-26 04:49:00,
2013-02-25 23:54:00,32.8,23.7,30.15,East,95,0.0,-999.0,69,0.00,,,0.00,0,Wunderground v.1.15,2013-02-26 04:54:00,